This is the latest recevied weather packets stored in our database for station/object NorthRyde. If no packets are shown the sender has not sent any weather packets the latest 10 day(s).
| Time | Temp. | Humidity | Pressure | Rain* | Wind** | Luminosity | Snow |
|---|---|---|---|---|---|---|---|
| 1777434456 | 25° C | 61% | 1028.7 hPa | 0 mm | - | 550 W/m² | - |
| 1777434402 | 25° C | 61% | 1028.8 hPa | 0 mm | - | 559 W/m² | - |
| 1777434344 | 25° C | 61% | 1028.7 hPa | 0 mm | - | 591 W/m² | - |
| 1777434279 | 24.44° C | 61% | 1028.6 hPa | 0 mm | - | 591 W/m² | - |
| 1777434217 | 24.44° C | 61% | 1028.6 hPa | 0 mm | - | 612 W/m² | - |
| 1777434159 | 24.44° C | 61% | 1028.6 hPa | 0 mm | - | 610 W/m² | - |
| 1777434098 | 24.44° C | 61% | 1028.7 hPa | 0 mm | - | 605 W/m² | - |
| 1777434046 | 24.44° C | 60% | 1028.7 hPa | 0 mm | - | 601 W/m² | - |
| 1777433977 | 25° C | 60% | 1028.6 hPa | 0 mm | - | 243 W/m² | - |
| 1777433919 | 25° C | 60% | 1028.6 hPa | 0 mm | - | 181 W/m² | - |
| 1777433857 | 25° C | 60% | 1028.6 hPa | 0 mm | - | 178 W/m² | - |
| 1777433799 | 25° C | 60% | 1028.5 hPa | 0 mm | - | 178 W/m² | - |
| 1777433743 | 25° C | 60% | 1028.6 hPa | 0 mm | - | 489 W/m² | - |
| 1777433679 | 25° C | 60% | 1028.5 hPa | 0 mm | - | 489 W/m² | - |
| 1777433617 | 25° C | 60% | 1028.5 hPa | 0 mm | - | 589 W/m² | - |
| 1777433558 | 25° C | 60% | 1028.6 hPa | 0 mm | - | 598 W/m² | - |
| 1777433497 | 25° C | 60% | 1028.6 hPa | 0 mm | - | 592 W/m² | - |
| 1777433443 | 25° C | 59% | 1028.5 hPa | 0 mm | - | 179 W/m² | - |
| 1777433376 | 25° C | 59% | 1028.5 hPa | 0 mm | - | 179 W/m² | - |
| 1777433319 | 25° C | 59% | 1028.7 hPa | 0 mm | - | 176 W/m² | - |
| 1777433257 | 25° C | 59% | 1028.5 hPa | 0 mm | - | 643 W/m² | - |
| 1777433200 | 25° C | 60% | 1028.6 hPa | 0 mm | - | 649 W/m² | - |
| 1777433138 | 25° C | 60% | 1028.6 hPa | 0 mm | - | 617 W/m² | - |
| 1777433070 | 25° C | 59% | 1028.5 hPa | 0 mm | - | 642 W/m² | - |
| 1777433017 | 24.44° C | 60% | 1028.6 hPa | 0 mm | - | 635 W/m² | - |
* Rain latest hour (hover to see other rain measurements)
** Current wind speed in m/s (hover to see current wind gust speed)